Terminal Aerodrome Forecast
Issued by NWS

Home | Current Version | Previous Version | Graphics & Text | Print | Product List | Glossary On
Versions: 1 2 3 4 5 6 7 8 9 10 11 12 13 14 15
000
FTUS41 KCLE 261100
TAFFDY
TAF
KFDY 261122Z 2612/2712 VRB03KT 2SM -RA BR OVC007
     FM261500 33009KT 2SM -RA BR OVC015
     FM261800 30010KT 3SM BR OVC015
     FM261900 30010KT P6SM OVC025
     FM262100 28010KT P6SM BKN045
     FM270300 32010KT P6SM BKN250=

USA.gov is the U.S. government's official web portal to all federal, state and local government web resources and services.